Regional Weather Roundup
Issued by NWS

Home | Current Version | Previous Version | Graphics & Text | Print | Product List | Glossary On
Versions: 1 2 3 4 5 6 7 8 9 10 11 12 13 14 15 16 17 18 19 20 21 22 23 24 25 26 27 28 29 30 31 32 33 34 35 36 37 38 39 40 41 42 43 44 45 46 47 48 49 50
000
ASUS43 KDTX 051001
RWRMI
MICHIGAN HOURLY REGIONAL WEATHER ROUNDUP
NATIONAL WEATHER SERVICE DETROIT/PONTIAC MI
500 AM EST FRI FEB 05 2016

NOTE: "FAIR" INDICATES FEW OR NO CLOUDS BELOW 12,000 FEET WITH NO
SIGNIFICANT WEATHER AND/OR OBSTRUCTION TO VISIBILITY.

MIZ047>049-052>055-059>063-066>070-074>076-081>083-051100-
SOUTHEAST LOWER MICHIGAN

CITY           SKY/WX    TMP DP  RH WIND       PRES   REMARKS
ADRIAN         CLEAR     18  12  77 SW3       30.32R
ALMA           CLOUDY    25  21  85 CALM      30.27S
ANN ARBOR      CLEAR     17  14  88 CALM      30.30S
BAD AXE        PTCLDY    19  17  92 W3        30.28S
CARO           CLEAR     17  15  94 CALM      30.28S
DETROIT CITY   CLEAR     21  14  74 W3        30.32R
DETROIT        CLEAR     20  15  81 SW5       30.32S WCI  13
FLINT          PTCLDY    18  12  77 S3        30.29S
GROSSE ILE     CLEAR     21  18  86 W3        30.31S
HILLSDALE      CLOUDY    18  16  90 CALM      30.27S
HOWELL         CLOUDY    21  17  86 SW3       30.28S

CITY           SKY/WX    TMP DP  RH WIND       PRES   REMARKS
JACKSON        CLOUDY    19  14  81 SW5       30.29R WCI  12
LAMBERTVILLE   CLEAR     19  16  89 CALM      30.33S
LANSING        CLOUDY    22  16  78 SW7       30.28S WCI  13
LAPEER         FAIR      17  17  98 CALM      30.28S
MASON          CLOUDY    21  16  81 CALM      30.28S
MONROE         CLEAR     21  17  83 CALM      30.32S
MT. CLEMENS    CLEAR     21  16  82 W5        30.29S WCI  14
PONTIAC        CLEAR     18  14  84 CALM      30.27S
PORT HOPE        N/A     25  18  74 W3        30.26R
PORT HURON     CLEAR     21  18  86 CALM      30.30R
TRI CITIES     CLOUDY    24  18  77 S5        30.28F WCI  18
MIDLAND        CLOUDY    23  18  79 S3        30.27S
TROY           CLEAR     22  17  82 CALM      30.32R
SAGINAW HB     CLOUDY    23  21  93 S6        30.28F WCI  16
$$
MIZ043>046-050>051-056>058-064>065-071>073-077>080-051100-
SOUTHWEST LOWER MICHIGAN

CITY           SKY/WX    TMP DP  RH WIND       PRES   REMARKS
BATTLE CREEK   MOCLDY    19  14  81 S5        30.28S WCI  12
BENTON HARBOR  PTCLDY    26  20  77 S6        30.28S WCI  19
BIG RAPIDS     FLURRIES  22  20  91 CALM      30.22S
COLDWATER      CLOUDY    22  19  87 CALM      30.29R
FREMONT        CLOUDY    25  23  95 CALM      30.24S
HOLLAND        CLOUDY    28  22  78 S8        30.27S WCI  20
GRAND RAPIDS   MOCLDY    25  20  81 S7        30.27S WCI  17
IONIA          CLOUDY    25  20  81 S5        30.25F WCI  19
KALAMAZOO      CLOUDY    22  16  78 SE5       30.28S WCI  16
LUDINGTON      CLOUDY    29  24  80 NW7       30.25R WCI  22
MARSHALL       CLOUDY    20  16  83 CALM      30.28S
MOUNT PLEASANT CLOUDY    22  17  80 S3        30.25F
MUSKEGON       CLOUDY    33  24  69 W7        30.25S WCI  27
SOUTH HAVEN    PTCLDY    26  22  85 CALM      30.27S
$$
MIZ016>042-051100-
NORTHERN LOWER MICHIGAN

CITY           SKY/WX    TMP DP  RH WIND       PRES   REMARKS
ALPENA         CLOUDY    21  17  84 S7        30.23F WCI  12
BEAVER ISLAND  CLOUDY    26  20  77 W7        30.21S WCI  18
BELLAIRE       FLURRIES  25  21  86 CALM      30.24R
CADILLAC       CLOUDY    22  19  89 CALM      30.20R
CHARLEVOIX     FLURRIES  28  23  81 W7        30.24S WCI  21
FRANKFORT      CLOUDY    28  22  78 W6        30.23S WCI  22
GAYLORD        FLURRIES  20  17  88 SW7       30.18S WCI  11
GRAYLING       FLURRIES  20  17  88 CALM      30.20S
HARBOR SPRINGS LGT SNOW  25  23  89 SW7       30.21R WCI  18
HOUGHTON LAKE  CLOUDY    20  16  84 SW3       30.21S
MANISTEE       CLOUDY    25  19  80 CALM      30.24S
OSCODA         CLOUDY    17  15  93 CALM      30.25F
PELLSTON       LGT SNOW  25  21  85 SW5       30.21S FOG     WCI  19
ROGERS CITY    FLURRIES  21  17  84 SW5       30.23R WCI  14
TRAVERSE CITY  CLOUDY    26  20  77 CALM      30.23R
$$
MIZ007>008-015-051100-
EASTERN UPPER MICHIGAN

CITY           SKY/WX    TMP DP  RH WIND       PRES   REMARKS
KINROSS        CLOUDY    19  18  93 CALM      30.19S
MACKINAC ISLAN LGT SNOW  21  21 100 CALM      30.20S
NEWBERRY       CLOUDY    18  15  89 SW8       30.17S WCI   7
S. S. MARIE    LGT SNOW  20  16  84 S3        30.18F FOG
$$
MIZ004>006-011>014-085-051100-
CENTRAL UPPER MICHIGAN

CITY           SKY/WX    TMP DP  RH WIND       PRES   REMARKS
MANISTIQUE     CLOUDY    18  14  84 W5        30.20S WCI  11
ESCANABA       CLOUDY    19  16  86 W6        30.22S WCI  11
MENOMINEE      CLOUDY    19  16  86 CALM      30.23S
SAWYER-GWINN   CLEAR      7   5  92 CALM      30.17R FOG
$$
MIZ001>003-009>011-084-051100-
WESTERN UPPER MICHIGAN

CITY           SKY/WX    TMP DP  RH WIND       PRES   REMARKS
IRON MOUNTAIN  CLEAR      9   5  84 CALM      30.18S FOG
HOUGHTON       LGT SNOW  20  14  77 NW8       30.17R WCI  10
COPPER HARBOR    N/A     23  15  71 N18       30.19R WCI   9
IRONWOOD       MOCLDY    12  10  92 W5        30.19S WCI   4
$$

ABBREVIATIONS USED IN REMARKS
   TC - TEMPERATURE IN CELSIUS
  WCI - WIND CHILL INDEX
   HX - HEAT INDEX
  VSB - VISIBILITY




USA.gov is the U.S. government's official web portal to all federal, state and local government web resources and services.